Météo par heure à Abadiânia

Ce jour, 14 Avril, Mercredi

Heure Température Précipitation Vent Pression Humidité
00:00 +19°C° 0 mm 1 m/s 677 mmHg 72%
01:00 +19°C° 0 mm 1 m/s 676 mmHg 73%
02:00 +16°C° 0 mm 0 m/s 676 mmHg 74%
03:00 +16°C° 0 mm 0 m/s 675 mmHg 75%
04:00 +16°C° 0 mm 0 m/s 675 mmHg 75%
05:00 +16°C° 0 mm 1 m/s 675 mmHg 75%
06:00 +16°C° 0 mm 1 m/s 675 mmHg 76%
07:00 +19°C° 0 mm 1 m/s 676 mmHg 71%
08:00 +21°C° 0 mm 1 m/s 677 mmHg 67%
09:00 +23°C° 0 mm 2 m/s 678 mmHg 63%
10:00 +24°C° 0 mm 2 m/s 678 mmHg 58%
11:00 +26°C° 0 mm 2 m/s 678 mmHg 53%
12:00 +27°C° 0 mm 3 m/s 678 mmHg 48%
13:00 +27°C° 0 mm 2 m/s 678 mmHg 47%
14:00 +28°C° 0 mm 2 m/s 677 mmHg 46%
15:00 +28°C° 0 mm 2 m/s 676 mmHg 45%
16:00 +26°C° 0 mm 2 m/s 676 mmHg 53%
17:00 +24°C° 0 mm 1 m/s 676 mmHg 60%
18:00 +23°C° 0 mm 1 m/s 676 mmHg 68%
19:00 +22°C° 0 mm 1 m/s 676 mmHg 68%
20:00 +21°C° 0 mm 1 m/s 676 mmHg 69%
21:00 +20°C° 0 mm 1 m/s 676 mmHg 69%
22:00 +20°C° 0 mm 1 m/s 676 mmHg 71%
23:00 +19°C° 0 mm 1 m/s 676 mmHg 73%

Demain, 15 Avril, Jeudi

Heure Température Précipitation Vent Pression Humidité
00:00 +19°C° 0 mm 1 m/s 676 mmHg 75%
01:00 +19°C° 0 mm 1 m/s 676 mmHg 75%
02:00 +18°C° 0 mm 1 m/s 675 mmHg 75%
03:00 +18°C° 0 mm 1 m/s 675 mmHg 76%
04:00 +18°C° 0 mm 1 m/s 675 mmHg 76%
05:00 +18°C° 0 mm 1 m/s 675 mmHg 77%
06:00 +18°C° 0 mm 1 m/s 675 mmHg 78%
07:00 +18°C° 0 mm 2 m/s 676 mmHg 73%
08:00 +20°C° 0 mm 2 m/s 677 mmHg 69%
09:00 +22°C° 0 mm 3 m/s 678 mmHg 65%
10:00 +25°C° 0 mm 3 m/s 678 mmHg 61%
11:00 +26°C° 0 mm 3 m/s 678 mmHg 57%
12:00 +27°C° 0 mm 3 m/s 678 mmHg 52%
13:00 +28°C° 0 mm 2 m/s 677 mmHg 52%
14:00 +28°C° 0 mm 2 m/s 677 mmHg 51%
15:00 +29°C° 0 mm 1 m/s 676 mmHg 50%
16:00 +27°C° 0 mm 1 m/s 676 mmHg 59%
17:00 +25°C° 0 mm 1 m/s 676 mmHg 67%
18:00 +23°C° 0 mm 1 m/s 675 mmHg 76%
19:00 +23°C° 0 mm 1 m/s 676 mmHg 77%
20:00 +22°C° 0 mm 1 m/s 676 mmHg 79%
21:00 +21°C° 0 mm 1 m/s 676 mmHg 81%
22:00 +21°C° 0 mm 1 m/s 676 mmHg 82%
23:00 +20°C° 0 mm 1 m/s 676 mmHg 83%

Après-demain, 16 Avril, Vendredi

Heure Température Précipitation Vent Pression Humidité
00:00 +20°C° 0 mm 1 m/s 676 mmHg 84%
01:00 +19°C° 0 mm 1 m/s 676 mmHg 85%
02:00 +19°C° 0 mm 1 m/s 675 mmHg 85%
03:00 +19°C° 0 mm 1 m/s 675 mmHg 85%
04:00 +19°C° 0 mm 1 m/s 675 mmHg 85%
05:00 +18°C° 0 mm 1 m/s 675 mmHg 85%
06:00 +18°C° 0 mm 1 m/s 675 mmHg 85%
07:00 +19°C° 0 mm 2 m/s 676 mmHg 80%
08:00 +21°C° 0 mm 2 m/s 677 mmHg 74%
09:00 +22°C° 0 mm 3 m/s 678 mmHg 68%
10:00 +25°C° 0 mm 2 m/s 678 mmHg 63%
11:00 +26°C° 0 mm 2 m/s 678 mmHg 59%
12:00 +28°C° 0 mm 2 m/s 677 mmHg 54%
13:00 +28°C° 0 mm 2 m/s 677 mmHg 53%
14:00 +28°C° 0 mm 1 m/s 676 mmHg 51%
15:00 +29°C° 0 mm 1 m/s 676 mmHg 49%
16:00 +27°C° 0 mm 1 m/s 676 mmHg 57%
17:00 +25°C° 0 mm 1 m/s 675 mmHg 65%
18:00 +23°C° 0 mm 1 m/s 675 mmHg 74%
19:00 +22°C° 0 mm 1 m/s 675 mmHg 75%
20:00 +22°C° 0 mm 1 m/s 675 mmHg 77%
21:00 +21°C° 0 mm 1 m/s 675 mmHg 78%
22:00 +20°C° 0 mm 1 m/s 675 mmHg 80%
23:00 +20°C° 0 mm 1 m/s 675 mmHg 81%

17 Avril, Samedi

Heure Température Précipitation Vent Pression Humidité
00:00 +20°C° 0 mm 1 m/s 676 mmHg 82%
01:00 +20°C° 0 mm 1 m/s 675 mmHg 82%
02:00 +19°C° 0 mm 1 m/s 675 mmHg 81%
03:00 +19°C° 0 mm 1 m/s 675 mmHg 81%
04:00 +19°C° 0 mm 1 m/s 675 mmHg 80%
05:00 +19°C° 0 mm 1 m/s 675 mmHg 80%
06:00 +19°C° 0 mm 1 m/s 676 mmHg 79%
07:00 +21°C° 0 mm 1 m/s 676 mmHg 75%
08:00 +21°C° 0 mm 2 m/s 677 mmHg 71%
09:00 +23°C° 0 mm 2 m/s 677 mmHg 66%
10:00 +25°C° 0 mm 2 m/s 677 mmHg 61%
11:00 +26°C° 0 mm 2 m/s 677 mmHg 55%
12:00 +28°C° 0 mm 2 m/s 677 mmHg 49%
13:00 +28°C° 0 mm 1 m/s 677 mmHg 50%
14:00 +28°C° 0 mm 1 m/s 676 mmHg 50%
15:00 +28°C° 0 mm 1 m/s 676 mmHg 51%
16:00 +27°C° 0.1 mm 1 m/s 675 mmHg 58%
17:00 +25°C° 0.1 mm 1 m/s 675 mmHg 66%
18:00 +23°C° 0.1 mm 1 m/s 675 mmHg 73%
19:00 +22°C° 0.2 mm 1 m/s 675 mmHg 76%
20:00 +20°C° 0.2 mm 0 m/s 675 mmHg 79%
21:00 +19°C° 0.2 mm 0 m/s 675 mmHg 82%
22:00 +18°C° 0.1 mm 0 m/s 675 mmHg 83%
23:00 +18°C° 0.1 mm 0 m/s 675 mmHg 84%

18 Avril, Dimanche

Heure Température Précipitation Vent Pression Humidité
00:00 +18°C° 0.1 mm 0 m/s 675 mmHg 86%
01:00 +17°C° 0.5 mm 0 m/s 675 mmHg 88%
02:00 +17°C° 0.5 mm 0 m/s 675 mmHg 90%
03:00 +17°C° 0.5 mm 0 m/s 675 mmHg 92%
04:00 +16°C° 0.3 mm 0 m/s 675 mmHg 92%
05:00 +16°C° 0.3 mm 0 m/s 675 mmHg 91%
06:00 +16°C° 0.3 mm 0 m/s 675 mmHg 91%
07:00 +20°C° 0.1 mm 1 m/s 676 mmHg 86%
08:00 +22°C° 0.1 mm 1 m/s 676 mmHg 80%
09:00 +23°C° 0.1 mm 1 m/s 677 mmHg 75%
10:00 +25°C° 0.5 mm 1 m/s 677 mmHg 70%
11:00 +26°C° 0.5 mm 1 m/s 677 mmHg 64%
12:00 +27°C° 0.5 mm 1 m/s 677 mmHg 58%
13:00 +27°C° 0.1 mm 1 m/s 676 mmHg 58%
14:00 +28°C° 0.1 mm 2 m/s 676 mmHg 57%
15:00 +28°C° 0.1 mm 2 m/s 675 mmHg 56%
16:00 +26°C° 0.4 mm 2 m/s 675 mmHg 65%
17:00 +24°C° 0.4 mm 1 m/s 674 mmHg 73%
18:00 +22°C° 0.4 mm 1 m/s 674 mmHg 82%
19:00 +21°C° 0.4 mm 1 m/s 674 mmHg 84%
20:00 +21°C° 0.4 mm 1 m/s 675 mmHg 87%
21:00 +20°C° 0.4 mm 1 m/s 675 mmHg 89%
22:00 +20°C° 0.3 mm 1 m/s 675 mmHg 89%
23:00 +20°C° 0.3 mm 1 m/s 675 mmHg 89%

19 Avril, Lundi

Heure Température Précipitation Vent Pression Humidité
00:00 +20°C° 0.3 mm 1 m/s 675 mmHg 89%
01:00 +20°C° 0.4 mm 1 m/s 675 mmHg 90%
02:00 +20°C° 0.4 mm 1 m/s 675 mmHg 92%
03:00 +19°C° 0.4 mm 1 m/s 675 mmHg 93%
04:00 +17°C° 0.5 mm 0 m/s 675 mmHg 94%
05:00 +17°C° 0.5 mm 0 m/s 675 mmHg 95%
06:00 +17°C° 0.5 mm 0 m/s 675 mmHg 96%
07:00 +18°C° 0.1 mm 0 m/s 675 mmHg 94%
08:00 +21°C° 0.1 mm 1 m/s 676 mmHg 91%
09:00 +21°C° 0.1 mm 1 m/s 676 mmHg 89%
10:00 +22°C° 0.8 mm 1 m/s 676 mmHg 85%
11:00 +23°C° 0.8 mm 2 m/s 677 mmHg 80%
12:00 +24°C° 0.8 mm 3 m/s 677 mmHg 76%
13:00 +24°C° 0.7 mm 3 m/s 676 mmHg 78%
14:00 +24°C° 0.7 mm 2 m/s 676 mmHg 80%
15:00 +24°C° 0.7 mm 2 m/s 675 mmHg 82%
16:00 +23°C° 0.9 mm 2 m/s 675 mmHg 86%
17:00 +21°C° 0.9 mm 2 m/s 675 mmHg 89%
18:00 +20°C° 0.9 mm 2 m/s 674 mmHg 93%
19:00 +19°C° 0.2 mm 2 m/s 675 mmHg 94%
20:00 +19°C° 0.2 mm 2 m/s 675 mmHg 95%
21:00 +18°C° 0.2 mm 2 m/s 676 mmHg 96%
22:00 +19°C° 0 mm 1 m/s 676 mmHg 96%
23:00 +19°C° 0 mm 1 m/s 676 mmHg 96%
Voir plus

Nous avons besoin de votre consentement

Meteoprog et ses fournisseurs de services peuvent stocker et accéder à des données personnelles telles que des cookies, des identifiants d'appareils ou d'autres technologies similaires sur votre appareil et traiter ces données pour personnaliser le contenu et les publicités, ainsi que pour fournir des fonctionnalités de médias sociaux et analyser le trafic.

  • Stocker et/ou accéder à des informations sur votre appareil

    Des cookies, des identifiants d'appareils ou d'autres informations peuvent être stockés ou accessibles sur votre appareil aux fins indiquées ci-dessus.

  • Annonces et contenus personnalisés, mesure des annonces et des contenus, connaissance de l'audience et développement de produits

    Les annonces et le contenu peuvent être personnalisés en fonction d'un profil. D'autres données peuvent être ajoutées pour mieux personnaliser les annonces et le contenu. Les performances des publicités et du contenu peuvent être mesurées. Il est possible d'obtenir des informations sur le public qui a vu les publicités et le contenu. Ces données peuvent être utilisées pour développer ou améliorer l'expérience de l'utilisateur, les systèmes et les logiciels.

En cliquant sur "J'accepte", vous autorisez l'utilisation de cookies, des identifiants d'appareils, des balises web ou d'autres technologies similaires. Vos paramètres peuvent être modifiés dans le navigateur de votre appareil.

Dans certains cas, des intérêts légitimes peuvent être invoqués plutôt qu'un consentement. Vous pouvez en savoir plus à ce sujet dans notre Politique de confidentialité et de cookies.